COSMOS 1275 DEB, 12966

Orbit data source: Space-Track

COSMOS 1275 DEB, 12966 is space debris in LEO originally from a launch on Thu, 04 Jun 1981 UTC launched from the Plesetsk Missile And Space Complex (PKMTR). Debris objects in space refer to the collection of defunct objects orbiting the Earth. Examples of debris include non-operational satellites, rocket bodies, and fragments generated from explosions, collisions, or faulty payload assembly.

Loading next visibility...
Identifier
12966, 1981-053EM
Orbit
LEO
Country
Flag of CISCIS
Related business
Manufacturer
Unknown
Mission
Spacecraft
Bus & Motor
Unknown
Mass
Unknown
Launch date (UTC)
1981-06-04 (45 years ago)
Launch vehicle
Unknown
Launch site
Plesetsk Missile And Space Complex (PKMTR)
Object type
Payload
Rocket body
Debris
Shape & HBR
Unknown shape, 0.1 m
Radar Cross Section
Small (<0.1 m²)

Expand to show TLE details & history
Last TLE update: 8 hours ago

TLE from 8 hours ago
0 COSMOS 1275 DEB
1 12966U 81053EM  26035.67464058  .00003340  00000-0  18078-2 0  9993
2 12966  82.9427   1.6470 0030674 313.5161 226.2631 14.12044573246595
Epoch: 2026-02-04T16:11Z
TLE epoch observation values (Epoch: 2026-02-04T16:11:28.946Z)
Latitude
0.35601°
Longitude
163.89472°
Altitude
870.661 km
Speed
7.409 km/s
True Right ascension
12h 06m 24s
True Declination
0° 21' 14"
Sunlit
Object was in full shadow at epoch
Visualization orbit readout
Latitude
Unknown
Longitude
Unknown
Altitude
Unknown
Speed
Unknown
Apparent Right ascension
Unknown
Apparent Declination
Unknown
Sunlit
N/A
Visualization observer readout
Local Sidereal Time
01:46:45
Azimuth
Unknown
Elevation
Unknown
Doppler factor
Unknown
Orbital elements
Apogee altitude
871.651 km
Perigee altitude
827.311 km
Semi-major axis
7,227.618 km
Eccentricity
0.00307
Inclination
82.9427°
RAAN
1.647°
Arg. of periapsis
313.5161°
True anomaly
226.00981°
Mean anomaly
226.2631°
Eccentric anomaly
226.13639°
Mean motion
3.53224 °/min
Orbital period
101.92 mins
BSTAR
0.0018078
Loading maneuver chart data...
Computing Atmospheric mass density...

Documentation

Showing up to 5 results
|